TimeCST,TemperatureF,Dew PointF,Humidity,Sea Level PressureIn,VisibilityMPH,Wind Direction,Wind SpeedMPH,Gust SpeedMPH,PrecipitationIn,Events,Conditions,WindDirDegrees,DateUTC
12:53 AM,26.1,24.1,92,30.33,10.0,Calm,Calm,-,N/A,,Clear,0,2012-11-15 06:53:00
1:53 AM,26.1,25.0,96,30.32,8.0,Calm,Calm,-,N/A,,Clear,0,2012-11-15 07:53:00
2:53 AM,25.0,23.0,92,30.32,8.0,Calm,Calm,-,N/A,,Clear,0,2012-11-15 08:53:00
3:53 AM,25.0,23.0,92,30.32,6.0,Calm,Calm,-,N/A,,Clear,0,2012-11-15 09:53:00
4:33 AM,24.8,23.0,93,30.30,1.5,Calm,Calm,-,N/A,,Clear,0,2012-11-15 10:33:00
4:42 AM,24.8,21.2,86,30.31,0.5,Calm,Calm,-,N/A,Fog,Light Freezing Fog,0,2012-11-15 10:42:00
4:50 AM,24.8,21.2,86,30.31,2.0,Calm,Calm,-,N/A,,Clear,0,2012-11-15 10:50:00
4:53 AM,24.1,21.0,88,30.33,3.0,Calm,Calm,-,N/A,,Clear,0,2012-11-15 10:53:00
5:01 AM,24.8,23.0,93,30.31,1.8,Calm,Calm,-,N/A,,Clear,0,2012-11-15 11:01:00
5:13 AM,24.8,23.0,93,30.31,0.5,Calm,Calm,-,N/A,Fog,Light Freezing Fog,0,2012-11-15 11:13:00
5:53 AM,23.0,21.9,96,30.33,0.5,Calm,Calm,-,N/A,Fog,Light Freezing Fog,0,2012-11-15 11:53:00
6:07 AM,23.0,21.2,93,30.31,2.0,Calm,Calm,-,N/A,,Clear,0,2012-11-15 12:07:00
6:15 AM,24.8,21.2,86,30.31,6.0,Calm,Calm,-,N/A,,Clear,0,2012-11-15 12:15:00
6:39 AM,24.8,23.0,93,30.31,2.0,Calm,Calm,-,N/A,,Clear,0,2012-11-15 12:39:00
6:53 AM,26.1,24.1,92,30.34,2.5,Calm,Calm,-,N/A,,Clear,0,2012-11-15 12:53:00
7:25 AM,32.0,30.2,93,30.34,5.0,Calm,Calm,-,N/A,,Clear,0,2012-11-15 13:25:00
7:53 AM,39.9,36.0,86,30.37,9.0,North,3.5,-,N/A,,Clear,10,2012-11-15 13:53:00
8:53 AM,45.0,37.9,76,30.38,10.0,NE,4.6,-,N/A,,Clear,40,2012-11-15 14:53:00
9:53 AM,50.0,37.9,63,30.38,10.0,Calm,Calm,-,N/A,,Clear,0,2012-11-15 15:53:00
10:53 AM,55.0,37.9,53,30.37,10.0,NNW,6.9,-,N/A,,Clear,330,2012-11-15 16:53:00
11:53 AM,59.0,39.0,48,30.34,10.0,North,6.9,-,N/A,,Clear,360,2012-11-15 17:53:00
12:53 PM,61.0,39.0,44,30.31,10.0,NE,5.8,-,N/A,,Clear,40,2012-11-15 18:53:00
1:53 PM,62.1,39.0,43,30.30,10.0,NNW,9.2,-,N/A,,Clear,340,2012-11-15 19:53:00
2:53 PM,60.1,39.9,47,30.28,10.0,North,5.8,-,N/A,,Clear,360,2012-11-15 20:53:00
3:53 PM,57.9,41.0,53,30.28,10.0,North,9.2,-,N/A,,Clear,360,2012-11-15 21:53:00
4:53 PM,54.0,42.1,64,30.29,10.0,North,5.8,-,N/A,,Clear,350,2012-11-15 22:53:00
5:53 PM,52.0,42.1,69,30.30,10.0,North,4.6,-,N/A,,Clear,350,2012-11-15 23:53:00
6:53 PM,48.9,41.0,74,30.31,10.0,NNW,4.6,-,N/A,,Clear,340,2012-11-16 00:53:00
7:53 PM,48.9,42.1,77,30.33,10.0,North,6.9,-,N/A,,Clear,10,2012-11-16 01:53:00
8:53 PM,48.0,41.0,77,30.34,10.0,NNE,8.1,-,N/A,,Clear,20,2012-11-16 02:53:00
9:53 PM,46.0,39.0,76,30.34,10.0,NNE,5.8,-,N/A,,Clear,20,2012-11-16 03:53:00
10:53 PM,43.0,37.9,82,30.34,10.0,Calm,Calm,-,N/A,,Clear,0,2012-11-16 04:53:00
11:53 PM,42.1,37.9,85,30.34,10.0,NNW,3.5,-,N/A,,Clear,330,2012-11-16 05:53:00